User: anonymous   Login
Location: Caltech
(34.1382°N, 118.1253°W)
Time: 17:35:22
(UTC-07:00)
Language:

Gurwin Techsat 1B - Orbit

View from above orbital plane
View from above orbital plane
View from above satellite
View from above satellite

Ground track
Ground track

The orbit data is extracted from the following two-line orbital elements,

1 25397U 98043D   17085.82288209 -.00000012 +00000-0 +13517-4 0  9995
2 25397 098.6027 029.9293 0000576 174.7857 185.3328 14.23617784971854
Epoch (UTC): 26 March 2017 19:44:57
Eccentricity: 0.0000576
inclination: 98.6027°
perigee height: 813 km
apogee height: 813 km
right ascension of ascending node: 29.9293°
argument of perigee: 174.7857°
revolutions per day: 14.23617784
mean anomaly at epoch: 185.3328°
orbit number at epoch: 97185

The dashed part of the orbit path shows where the satellite is in the earth's shadow,  

DLR